Home   Weather   Rosenheim   Past weeks

Flag for Germany Past Weather in Rosenheim, Bavaria, Germany — Yesterday and Last 2 Weeks

Now
50 °F

Cool.


Feels Like: 50 °F
Forecast: 45 / 70 °F
Wind: 1 mph from Southwest

Location: Kufstein

Current Time: Sep 26, 2016 at 5:43:34 AM

Latest Report: Sep 26, 2016 at 5:00 AM


Visibility: N/A

Pressure: 30.21 "Hg

Humidity: 97%

Dew Point: 49 °F

Location of RosenheimLocation

Past Weather in Rosenheim — Graph

°F

Rosenheim Temperature Yesterday

Maximum temperature yesterday: 72 °F (at 4:00 PM)
Minimum temperature yesterday: 48 °F (at 8:00 AM)
Average temperature yesterday: 59 °F

High & Low Weather Summary for the Past Weeks

 TemperatureHumidityPressure
High83 °F (Sep 15, 2:00 PM)98% (Sep 24, 7:00 AM)30.38 "Hg (Sep 24, 7:00 AM)
Low44 °F (Sep 23, 7:00 AM)33% (Sep 15, 3:00 PM)29.78 "Hg (Sep 15, 2:00 PM)
Average60 °F80%30.05 "Hg
* Reported Sep 11 4:00 AM — Sep 26 4:00 AM, Rosenheim, Weather by CustomWeather, © 2016

Note: Actual official high and low records may vary slightly from our data, if they occured in-between our weather recording intervals... More about our weather records

Advertising

Rosenheim Weather History for the Previous 24 Hours

Scroll right to see more
 ConditionsComfort  
Time TempWeatherWind HumidityBarometerVisibility
4:00 AM
Mon, Sep 26
51 °FCool.No wind96%30.21 "HgN/A
3:00 AM52 °FCool.No wind96%30.20 "HgN/A
2:00 AM53 °FCool.No wind95%30.19 "HgN/A
1:00 AM54 °FCool.No wind95%30.18 "HgN/A
12:00 AM57 °FCool.1 mph91%30.16 "HgN/A
11:00 PM
Sun, Sep 25
59 °FCool.No wind89%30.15 "HgN/A
10:00 PM61 °FCool.No wind83%30.14 "HgN/A
9:00 PM63 °FMild.1 mph78%30.12 "HgN/A
8:00 PM65 °FMild.2 mph73%30.10 "HgN/A
7:00 PM67 °FMild.2 mph68%30.08 "HgN/A
6:00 PM69 °FMild.2 mph63%30.05 "HgN/A
5:00 PM71 °FMild.3 mph58%30.03 "HgN/A
4:00 PM72 °FMild.2 mph54%30.03 "HgN/A
3:00 PM71 °FMild.3 mph54%30.04 "HgN/A
2:00 PM69 °FMild.2 mph52%30.07 "HgN/A
1:00 PM66 °FMild.1 mph58%30.11 "HgN/A
12:00 PM64 °FMild.2 mph58%30.13 "HgN/A
11:00 AM61 °FCool.1 mph66%30.16 "HgN/A
10:00 AM54 °FCool.No wind84%30.21 "HgN/A
9:00 AM49 °FCool.1 mph93%30.24 "HgN/A
8:00 AM48 °FCool.2 mph92%30.24 "HgN/A
7:00 AM49 °FCool.2 mph93%30.24 "HgN/A
6:00 AM49 °FCool.1 mph92%30.23 "HgN/A
5:00 AM50 °FCool.2 mph93%30.23 "HgN/A
Weather by CustomWeather, © 2016

See weather overviewHow to use our weather pages